Volver al catálogo

STARLINK-36125

ActivoComunicacionesVLEO
NORAD 67036·PAYLOAD·🇺🇸 United States

Lanzado Dec 11, 2025 desde Cape Canaveral Space Force Station

Loading…

Próximos Pases (próximas 24 horas)

TLE

ActualizadoSource: CelesTrak SupGP

Época: Sep 14, 2026, 23:01 UTC

1 67036C 25294G   26257.95951389  .00042536  00000+0  15415-2 0  2579
2 67036  43.0043  49.1334 0001665 267.5088 180.9055 15.27537798    19

Sigue STARLINK-36125 en tiempo real con AllMySat

Download on the App Store